{"data":{"norad_id":67308,"epoch":"2026-05-25T00:37:54.722784Z","epoch_age_seconds":62846,"freshness":"FRESH","line1":"1 67308U 26002D   26145.02632781  .00018539  00000+0  68164-3 0  9994","line2":"2 67308  43.0045 254.1568 0001893 278.5094  81.5543 15.27573235 22818","mean_motion":15.27573235,"eccentricity":0.0001893,"inclination_deg":43.0045,"raan_deg":254.1568,"arg_perigee_deg":278.5094,"mean_anomaly_deg":81.5543,"bstar":0.00068164,"rev_number":2281,"period_min":94.267166182707,"perigee_km":481.77052659549,"apogee_km":484.36817932072,"semimajor_km":6861.2063529581,"source":"CELESTRAK","updated_at":"2026-05-25T13:38:21.515029Z"}}